TimeCST,TemperatureF,Dew PointF,Humidity,Sea Level PressureIn,VisibilityMPH,Wind Direction,Wind SpeedMPH,Gust SpeedMPH,PrecipitationIn,Events,Conditions,WindDirDegrees,DateUTC
12:52 AM,28.9,26.1,89,30.18,10.0,ENE,15.0,20.7,N/A,,Overcast,70,2012-11-09 06:52:00
1:52 AM,27.0,25.0,92,30.19,10.0,ENE,15.0,-,N/A,,Overcast,60,2012-11-09 07:52:00
2:52 AM,27.0,24.1,89,30.17,10.0,East,20.7,26.5,N/A,,Overcast,80,2012-11-09 08:52:00
3:52 AM,27.0,24.1,89,30.17,10.0,ENE,12.7,-,N/A,,Overcast,70,2012-11-09 09:52:00
4:52 AM,28.0,24.1,85,30.14,10.0,ENE,13.8,-,N/A,,Overcast,70,2012-11-09 10:52:00
5:52 AM,27.0,24.1,89,30.14,10.0,East,18.4,-,N/A,,Overcast,80,2012-11-09 11:52:00
6:52 AM,27.0,24.1,89,30.14,8.0,East,19.6,25.3,N/A,,Overcast,80,2012-11-09 12:52:00
7:52 AM,27.0,25.0,92,30.13,4.0,East,16.1,-,N/A,,Overcast,80,2012-11-09 13:52:00
8:52 AM,27.0,25.0,92,30.13,8.0,East,15.0,-,N/A,,Overcast,80,2012-11-09 14:52:00
9:52 AM,27.0,25.0,92,30.10,10.0,East,23.0,28.8,N/A,,Overcast,80,2012-11-09 15:52:00
10:52 AM,28.0,25.0,88,30.10,10.0,ENE,18.4,29.9,N/A,,Overcast,70,2012-11-09 16:52:00
11:52 AM,28.0,25.0,88,30.09,10.0,ENE,17.3,-,N/A,,Overcast,70,2012-11-09 17:52:00
12:52 PM,28.0,25.0,88,30.06,5.0,East,21.9,29.9,N/A,,Overcast,80,2012-11-09 18:52:00
1:52 PM,28.0,25.0,88,30.04,4.0,ENE,20.7,29.9,N/A,,Overcast,70,2012-11-09 19:52:00
2:52 PM,28.0,25.0,88,30.01,5.0,ENE,23.0,33.4,N/A,,Overcast,70,2012-11-09 20:52:00
3:52 PM,28.0,25.0,88,30.00,4.0,ENE,25.3,33.4,N/A,,Overcast,70,2012-11-09 21:52:00
4:21 PM,28.4,26.6,93,29.92,2.5,ENE,24.2,31.1,N/A,,Overcast,70,2012-11-09 22:21:00
4:52 PM,28.0,26.1,92,30.01,2.5,ENE,21.9,29.9,N/A,,Overcast,70,2012-11-09 22:52:00
5:11 PM,28.4,26.6,93,29.94,3.0,ENE,17.3,28.8,N/A,,Overcast,70,2012-11-09 23:11:00
5:52 PM,27.0,25.0,92,30.00,4.0,East,20.7,28.8,N/A,,Overcast,80,2012-11-09 23:52:00
6:52 PM,27.0,25.0,92,29.99,5.0,ENE,10.4,19.6,N/A,,Overcast,70,2012-11-10 00:52:00
7:52 PM,27.0,25.0,92,29.99,5.0,East,16.1,-,N/A,,Overcast,80,2012-11-10 01:52:00
8:52 PM,27.0,26.1,96,29.96,4.0,East,9.2,-,N/A,,Overcast,90,2012-11-10 02:52:00
9:52 PM,28.0,26.1,92,29.95,7.0,NE,9.2,21.9,N/A,,Overcast,50,2012-11-10 03:52:00
10:36 PM,28.4,26.6,93,29.86,3.0,ENE,11.5,-,0.00,Rain,Light Freezing Rain,60,2012-11-10 04:36:00
10:43 PM,28.4,26.6,93,29.86,2.5,ENE,11.5,-,0.01,Rain,Light Freezing Rain,60,2012-11-10 04:43:00
10:52 PM,28.9,27.0,92,29.92,2.5,NE,11.5,-,0.01,Rain,Light Freezing Rain,40,2012-11-10 04:52:00
11:02 PM,28.4,26.6,93,29.85,3.0,NE,10.4,-,0.00,Rain,Light Freezing Rain,50,2012-11-10 05:02:00
11:52 PM,30.0,28.0,92,29.91,3.0,NE,10.4,-,0.02,Rain,Light Freezing Rain,50,2012-11-10 05:52:00
11:59 PM,30.2,28.4,93,29.82,3.0,ENE,13.8,-,0.01,,Overcast,60,2012-11-10 05:59:00